Regional Weather Roundup
Issued by NWS Jackson, KY

Home | Current Version | Previous Version | Graphics & Text | Print | Product List | Glossary On
Versions: 1 2 3 4 5 6 7 8 9 10 11 12 13 14 15 16 17 18 19 20 21 22 23 24 25 26 27 28
000
ASUS43 KJKL 300210
RWRJKL

EAST KENTUCKY HOURLY WEATHER ROUNDUP
NATIONAL WEATHER SERVICE JACKSON KY
1000 PM EDT FRI APR 29 2016

NOTE: "FAIR" INDICATES FEW OR NO CLOUDS BELOW 12,000 FEET WITH
NO SIGNIFICANT WEATHER AND/OR OBSTRUCTIONS TO VISIBILITY.

* THESE REPORTS ARE NOT UNDER NWS QUALITY CONTROL AND MAY NOT
  REPORT WEATHER SUCH AS PRECIPITATION AND FOG.

KYZ079-080-083-085-087-088-110-112-115-119-120-300300
...EASTERN KENTUCKY...

CITY           SKY/WX    TMP DP  RH WIND       PRES   REMARKS
JACKSON        PTCLDY    64  49  57 VRB3      30.05R
LONDON         CLOUDY    67  52  58 N10       30.03S
SOMERSET*      CLOUDY    64  52  63 SW3       30.04R
MONTICELLO*    PTCLDY    66  59  78 NW10      30.03R
WILLIAMSBURG*  CLOUDY    59  48  67 SW3       30.03S
MIDDLESBORO*   CLOUDY    65  53  65 CALM      30.02F
HARLAN APT*      N/A     64  52  63 CALM      30.05R
HAZARD APT*    CLEAR     64  52  63 CALM      30.04S
BLACK MTN*       N/A     59  45  58 N2          N/A
PIKE CO APT*     N/A     65  50  58 N7        30.06R
BIG SANDY APT* PTCLDY    65  51  60 NW3       30.06R
MOREHEAD APT*  CLOUDY    63  50  63 CALM      30.08R
$$

KYZ035-036-041-042-044-050-067-078-099-300300
...CENTRAL KENTUCKY...

CITY           SKY/WX    TMP DP  RH WIND       PRES   REMARKS
MT STERLING*   CLOUDY    63  54  72 CALM      30.07R
FLEMING/MASON* PTCLDY    59  52  77 NE7       30.08R
DANVILLE*      CLOUDY    63  52  67 NE6       30.06R
RICHMOND*      CLOUDY    63  52  67 N3        30.05R
LEXINGTON      CLOUDY    63  50  62 N7        30.06R
FRANKFORT      CLOUDY    65  49  56 N5        30.04S
LOUISVILLE     CLOUDY    67  49  52 NE9       30.04R
LEBANON*         N/A     64  52  63 N6        30.03S
BOWLING GREEN  CLOUDY    66  60  81 NE6       29.99R
$$

KYZ091>093-OHZ055-061-077-WVZ005-015-034-035-042-300300
...SOUTHERN OHIO/WEST VIRGINIA...

CITY           SKY/WX    TMP DP  RH WIND       PRES   REMARKS
COVINGTON      CLOUDY    62  49  62 NE13      30.08R
COLUMBUS       CLOUDY    51  44  77 N8        30.13R
DAYTON         CLOUDY    50  46  86 N7        30.12R
WILMINGTON     CLOUDY    54  49  83 NE12      30.09R
HUNTINGTON       N/A     62  51  67 NE6       30.06R
CHARLESTON       N/A     62  49  62 N7        30.07R
PINEVILLE*       N/A     59  50  71 MISG      30.09R
BECKLEY          N/A     62  49  62 N10       30.07R
$$

VAZ002-007-008-TNZ017-027-036-066-071-300300
...SOUTHWEST VIRGINIA/EAST TENNESSEE...

CITY           SKY/WX    TMP DP  RH WIND       PRES   REMARKS
WISE*            N/A     64  37  36 CALM      30.09S
BRISTOL        MOCLDY    64  53  67 CALM      30.03R
MORRISTOWN*    CLOUDY    66  57  72 CALM      30.01S
KNOXVILLE      CLOUDY    72  53  51 CALM      29.99S
OAK RIDGE      CLOUDY    70  58  65 CALM      30.00F
CROSSVILLE     CLOUDY    69  51  52 CALM      30.05R
NASHVILLE      CLOUDY    68  60  75 SE5       29.98R
$$

...KEY TO REMARKS...
VSB - VISIBILITY IN MILES
WCI - WIND CHILL INDEX
HX  - HEAT INDEX

$$




USA.gov is the U.S. government's official web portal to all federal, state and local government web resources and services.